Location: Dorf
(48.5000°N, 14.1000°E)
Time: 15:37:15
(UTC+00:00)

Daily predictions for brighter satellites

Satellite Brightness Start Highest point End
(mag) Time Altitude Azimuth Time Altitude Azimuth Time Altitude Azimuth
Tsikada Rocket 4.1 17:00:23 10° N 17:06:48 72° E 17:13:12 10° SSE
STARLINK-65 3.6 17:04:55 10° WSW 17:08:57 85° NNW 17:13:00 10° ENE
Cosmos 2278 Rocket 4.2 17:04:45 10° W 17:09:22 25° NW 17:14:01 10° N
Cosmos 1666 Rocket 3.6 17:05:25 10° S 17:09:50 63° E 17:14:17 10° NNE
STARLINK-53 3.6 17:06:39 10° WSW 17:10:41 82° NNW 17:14:43 10° ENE
ADEOS Rocket 4.0 17:03:36 10° NNE 17:10:50 40° E 17:17:53 10° SSE
NOAA 11 4.2 17:06:26 10° SSE 17:11:47 61° ENE 17:17:08 10° N
Aureole 2 Rocket 2.0 17:11:50 10° S 17:14:22 45° ESE 17:16:59 10° NE
Cosmos 1943 Rocket 2.2 17:09:16 10° SSW 17:14:47 67° ESE 17:20:18 10° NNE
STARLINK-1027 4.2 17:11:01 10° SW 17:15:05 45° SE 17:19:09 10° ENE
Cosmos 2016 Rocket 4.1 17:10:28 10° S 17:16:35 83° W 17:22:46 10° N
STARLINK-33 3.7 17:13:49 10° W 17:17:01 48° NNW 17:20:13 10° ENE
STARLINK-1032 4.3 17:13:47 10° SSW 17:17:39 40° SE 17:21:32 10° ENE
STARLINK-1007 3.0 17:15:17 10° WSW 17:18:32 83° NNW 17:21:48 10° ENE
USA 116 4.3 17:15:09 10° NNE 17:19:00 43° E 17:23:18 10° S
STARLINK-55 3.7 17:15:52 10° W 17:19:02 47° NNW 17:22:14 10° ENE
STARLINK-80 4.2 17:15:24 10° WNW 17:19:02 40° N 17:22:41 10° ENE
STARLINK-66 3.7 17:15:54 10° W 17:19:06 47° NNW 17:22:18 10° ENE
Cosmos 724 4.3 17:13:25 10° NW 17:19:15 74° NE 17:25:04 10° SE
Meteor 1-27 Rocket 3.7 17:14:28 10° N 17:20:03 78° ENE 17:25:41 10° SSE
CZ-2C R/B 4.5 17:15:57 10° ESE 17:20:16 22° ENE 17:24:30 10° N
Cosmos 2227 Rocket 4.1 17:18:32 10° N 17:20:39 12° NNE 17:22:46 10° NE
STARLINK-28 3.8 17:17:32 10° W 17:20:42 45° NNW 17:23:52 10° ENE
STARLINK-58 3.6 17:17:27 10° WSW 17:20:58 61° NNW 17:24:31 10° ENE
Envisat 4.4 17:16:33 10° S 17:21:24 45° W 17:26:18 10° NNW
COSMOS 2487 3.6 17:19:39 10° N 17:22:31 23° ENE 17:25:21 10° ESE
STARLINK-1011 4.2 17:18:40 10° SW 17:22:35 43° SE 17:26:23 11° ENE
STARLINK-62 3.6 17:19:09 10° W 17:22:40 59° NNW 17:26:12 10° ENE
Lacrosse 5 rocket 3.0 17:20:10 10° WNW 17:24:03 28° N 17:28:02 10° ENE
STARLINK-34 3.6 17:20:47 10° W 17:24:18 58° NNW 17:27:46 10° ENE
Cosmos 1777 Rocket 4.3 17:21:55 10° NNW 17:27:12 74° WSW 17:32:26 10° SSE
STARLINK-1036 4.1 17:23:36 10° SW 17:27:34 46° SE 17:31:11 12° ENE
STARLINK-42 3.7 17:24:39 10° W 17:27:48 46° NNW 17:30:45 11° ENE
Cosmos 1340 3.0 17:25:59 10° SSE 17:29:32 41° E 17:33:06 10° NNE
Cosmos 2233 Rocket 3.9 17:25:17 10° S 17:31:22 70° E 17:37:33 10° NNE
Cosmos 1898 Rocket 4.3 17:27:11 10° N 17:31:46 31° NE 17:36:20 10° ESE
NOSS 2-3 (E) 3.9 17:28:03 10° SSW 17:32:13 50° ESE 17:37:08 10° NE
Cosmos 44 3.2 17:27:51 10° NW 17:32:15 79° SW 17:36:48 10° SSE
STARLINK-1044 4.0 17:28:31 10° SW 17:32:31 50° SE 17:35:58 13° ENE
STARLINK-1010 3.2 17:29:57 10° WSW 17:33:12 69° NNW 17:36:00 13° ENE
STARLINK-1031 3.8 17:30:03 10° SW 17:34:01 56° SE 17:37:23 14° ENE
STARLINK 1040 3.1 17:31:32 10° W 17:34:17 54° NNW 17:36:32 14° ENE
HJ-1C 4.0 17:31:18 10° SE 17:34:19 34° ENE 17:37:22 10° N
Lacrosse 4 Rocket 3.4 17:31:02 10° WSW 17:34:44 28° NW 17:38:32 10° NNE
Sich 1 4.1 17:34:18 10° SSW 17:38:27 48° WNW 17:42:36 10° N
Cosmos 1939 Rocket 2.9 17:35:58 10° SSE 17:40:06 89° ENE 17:44:17 10° NNW
STARLINK-24 3.9 17:36:33 10° W 17:40:32 61° NNW 17:43:52 14° ENE
USA 234 4.0 17:34:34 10° ENE 17:40:38 42° N 17:46:42 10° WNW
STARLINK-1029 3.0 17:38:13 10° WSW 17:41:24 74° NNW 17:43:45 17° ENE
STARLINK-1037 3.8 17:38:19 10° SW 17:42:22 57° SSE 17:45:28 17° ENE
CZ-4 R/B 2.3 17:41:07 10° S 17:45:13 54° W 17:49:18 10° NNW
STARLINK-29 3.8 17:42:07 10° WNW 17:45:25 50° SSW 17:48:35 11° SE
Cosmos 1656 Rocket 3.9 17:40:36 10° S 17:45:48 45° ESE 17:51:07 10° NE
SL-27 R/B 4.5 17:43:15 10° NW 17:46:13 30° WSW 17:49:09 10° SSW
NOSS 2-3 (D) 3.7 17:42:56 10° SSW 17:47:12 61° SE 17:52:15 10° NE
STARLINK-1059 3.7 17:43:20 10° SW 17:47:24 62° SSE 17:50:19 18° ENE
STARLINK-1016 3.4 17:45:21 10° W 17:48:36 58° NNW 17:50:49 19° ENE
STARLINK-1008 3.4 17:45:44 10° W 17:49:01 58° NNW 17:51:15 19° ENE
USA 229 DEB 3.9 17:42:50 10° SW 17:49:23 71° NW 17:56:22 10° NE
USA 229 3.9 17:42:56 10° SW 17:49:30 72° NW 17:56:27 10° NE
Cosmos 1470 Rocket 3.4 17:45:50 10° S 17:50:10 75° E 17:54:35 10° NNE
STARLINK-81 3.9 17:46:13 10° W 17:50:12 59° NNW 17:53:08 17° ENE
STARLINK-54 4.0 17:48:06 10° W 17:52:05 56° NNW 17:54:56 18° ENE
STARLINK-1025 3.5 17:49:05 10° W 17:52:21 55° NNW 17:54:25 20° NE
STARLINK-1057 3.6 17:48:18 10° SW 17:52:24 66° SSE 17:55:07 20° ENE
STARLINK-75 4.0 17:50:04 10° W 17:53:19 41° N 17:55:21 19° NE
STARLINK-77 4.0 17:49:33 10° W 17:53:32 57° NNW 17:56:20 18° ENE
STARLINK-1017 3.5 17:50:45 10° W 17:54:01 55° NNW 17:56:01 21° NE
STARLINK-22 3.9 17:51:01 10° W 17:54:16 43° NNW 17:56:16 20° NE
Meteor 1-25 Rocket 4.4 17:48:56 10° SSE 17:54:21 48° E 17:59:45 10° NNE
STARLINK-25 4.0 17:51:13 10° W 17:55:12 57° NNW 17:57:56 19° ENE
COSMO-SKYMED 1 3.7 17:51:17 10° N 17:55:27 46° WNW 17:59:36 10° SW
Cosmos 1862 Rocket 4.0 17:51:11 10° NNW 17:55:29 65° W 17:59:48 10° S
STARLINK-41 3.9 17:52:31 10° W 17:55:45 41° N 17:57:41 20° NE
Cosmos 2242 Rocket 3.5 17:51:19 10° N 17:55:53 76° E 18:00:26 10° SSE
NOSS 3-1 (A) 3.4 17:50:53 10° SW 17:56:28 88° NW 18:03:03 10° NE
STARLINK-71 4.0 17:53:08 10° W 17:57:05 54° NNW 17:59:44 20° ENE
STARLINK-1034 3.6 17:53:14 10° SW 17:57:20 70° SSE 17:59:53 22° ENE
STARLINK-52 4.0 17:55:01 10° WNW 17:58:16 44° SW 18:00:48 15° SE
STARLINK-79 4.0 17:54:32 10° W 17:58:30 55° NNW 18:01:06 20° ENE
STARLINK-1048 3.6 17:55:50 10° W 17:59:05 52° NNW 18:00:54 23° NE
STARLINK-78 4.0 17:56:14 10° W 18:00:12 54° NNW 18:02:42 21° ENE
Resurs 01 Rocket 3.4 18:01:19 15° NE 18:01:19 15° NE 18:03:18 10° NNE
STARLINK-1049 3.6 17:57:33 10° W 18:00:48 51° NNW 18:02:33 24° NE
STARLINK-57 4.1 17:58:00 10° W 18:01:57 53° NNW 18:04:24 21° NE
STARLINK-1068 3.6 17:58:11 10° SW 18:02:19 75° SSE 18:04:40 25° ENE
CENTAUR R/B 4.1 17:56:01 10° NW 18:02:26 30° NNE 18:07:34 17° ENE
STARLINK-1051 3.6 17:59:18 10° W 18:02:33 50° NNW 18:04:14 24° NE
STARLINK-1028 3.6 17:59:41 10° W 18:02:57 50° NNW 18:04:37 25° NE
STARLINK-64 4.1 17:59:34 10° W 18:03:02 43° N 18:04:55 23° NE
STARLINK-49 4.1 17:59:32 10° W 18:03:29 53° NNW 18:05:52 22° NE
Cosmos 2369 Rocket 2.5 17:58:52 10° SW 18:04:31 70° WNW 18:10:14 10° NNE
STARLINK-1021 3.7 18:01:28 10° W 18:04:43 49° NNW 18:06:19 25° NE
Ariane Rocket 2.9 17:59:45 10° SSE 18:04:49 69° ENE 18:09:55 10° N
STARLINK-27 4.1 18:01:12 10° W 18:05:09 53° NNW 18:07:28 23° NE
STARLINK-26 4.1 18:01:53 10° WNW 18:05:09 37° N 18:06:33 26° NE
Cosmos 921 Rocket 4.4 18:01:33 10° SW 18:05:51 43° WNW 18:10:12 10° N
Cosmos 1602 4.3 18:02:34 10° SSE 18:06:04 33° E 18:09:34 10° NNE
STARLINK-1019 3.7 18:03:15 10° W 18:06:30 49° NNW 18:08:02 26° NE
STARLINK-74 4.1 18:02:52 10° W 18:06:49 52° NNW 18:09:03 23° NE
STARLINK-1012 3.7 18:05:04 10° W 18:08:18 48° NNW 18:09:46 27° NE
Lacrosse 5 3.2 18:04:48 10° S 18:08:21 20° SE 18:08:21 20° SE
STARLINK-39 4.1 18:04:32 10° W 18:08:29 51° NNW 18:10:39 24° NE
Okean 1-7 3.0 18:04:43 10° N 18:09:00 56° ENE 18:13:15 10° SSE
SL-08 RB Rocket 4.4 18:07:50 27° E 18:09:02 31° ENE 18:12:58 10° N
IRS-1A Rocket 4.1 18:03:34 10° SSE 18:09:02 71° ENE 18:14:33 10° NNW
STARLINK-31 4.1 18:06:12 10° W 18:10:08 51° NNW 18:12:14 25° NE
SJ-6B 3.2 18:11:06 33° E 18:11:45 36° ENE 18:15:15 10° N
STARLINK-1026 3.8 18:08:39 10° W 18:11:54 47° NNW 18:13:12 29° NE
STARLINK-69 4.2 18:08:04 10° W 18:12:00 49° NNW 18:14:00 25° NE
STARLINK-1060 3.5 18:08:07 10° WSW 18:12:15 84° SSE 18:14:13 30° ENE
STARLINK-1014 3.7 18:08:51 10° W 18:12:16 53° NNW 18:13:43 30° NE
Cosmos 1703 Rocket 3.5 18:08:05 10° N 18:12:33 72° ENE 18:17:01 10° SSE
ARGOS Delta rocket 4.2 18:11:44 29° ESE 18:12:59 34° ENE 18:17:01 10° N
STARLINK-21 4.1 18:09:33 10° W 18:13:29 50° NNW 18:15:26 26° NE
STARLINK-1013 3.8 18:10:29 10° W 18:13:43 46° NNW 18:14:58 30° NE
ATLAS 3B R/B 4.1 18:08:55 10° NW 18:14:06 23° NNE 18:17:53 15° NE
Cosmos 1891 Rocket 4.5 18:08:44 10° S 18:14:47 61° E 18:21:02 10° NNE
STARLINK-45 4.2 18:11:27 10° W 18:15:22 48° N 18:17:13 27° NE
STARLINK-1009 3.8 18:12:17 10° W 18:15:31 45° NNW 18:16:42 31° NE
Cosmos 990 Rocket 3.9 18:11:09 10° NNW 18:16:17 64° ENE 18:20:03 18° SE
STARLINK-70 4.2 18:13:02 10° W 18:16:57 48° N 18:18:45 28° NE
STARLINK-1030 3.5 18:13:07 10° WSW 18:17:16 89° SSE 18:19:02 34° ENE
STARLINK-1015 3.8 18:14:08 10° W 18:17:23 45° NNW 18:18:28 32° NE
NOSS 7 (D) 3.9 18:14:31 10° NW 18:17:26 84° NE 18:18:06 52° SE
STARLINK-76 4.2 18:14:33 10° W 18:18:29 48° N 18:20:13 28° NE
STARLINK-1043 4.5 18:15:29 10° SSW 18:19:08 31° SE 18:19:18 31° SE
STARLINK-23 4.2 18:16:14 10° W 18:20:08 48° N 18:21:48 29° NE
NOSS 2-3 (C) 3.9 18:16:58 10° SW 18:21:22 73° NW 18:26:14 12° NE
SJ 16-02 1.3 18:17:18 10° NNW 18:21:43 64° ENE 18:23:52 29° SE
STARLINK-32 4.2 18:17:54 10° W 18:21:49 48° N 18:23:24 30° NE
STARLINK-1020 3.5 18:18:04 10° WSW 18:22:13 87° NNW 18:23:48 37° ENE
Cosmos 1869 Rocket 3.7 18:18:25 10° SSE 18:22:37 46° E 18:26:49 10° NNE
FREGAT/IRIS 3.2 18:23:34 38° N 18:23:34 38° N 18:25:27 10° N
STARLINK-40 4.2 18:19:33 10° W 18:23:28 47° N 18:24:59 31° NE
STARLINK-1065 4.4 18:20:17 10° SSW 18:24:00 33° SE 18:24:00 33° SE
H-2A R/B 2.1 18:18:40 10° SSE 18:24:01 70° ENE 18:29:27 10° N
STARLINK-1047 3.6 18:20:30 10° WSW 18:24:40 83° NNW 18:26:11 38° ENE
STARLINK-44 4.2 18:21:14 10° W 18:25:08 47° N 18:26:35 32° NE
ARGOS 3.1 18:20:11 11° SSE 18:25:22 63° ENE 18:30:45 10° N
Cosmos 1937 Rocket 3.5 18:20:44 10° NNW 18:25:57 58° ENE 18:28:21 30° SE
STARLINK-37 4.2 18:23:01 10° W 18:26:55 46° N 18:28:16 33° NE
STARLINK-48 4.1 18:23:24 10° WNW 18:27:10 44° N 18:28:00 38° NE
STARLINK-1052 3.6 18:23:04 10° WSW 18:27:13 83° NNW 18:28:35 41° ENE
STARLINK-61 4.3 18:24:00 10° WNW 18:27:44 42° N 18:28:49 33° NE
STARLINK-36 4.2 18:24:32 10° W 18:28:27 46° N 18:29:45 33° NE
STARLINK-1063 4.3 18:25:13 10° SSW 18:28:50 35° SSE 18:28:50 35° SSE
STARLINK-68 4.3 18:26:26 10° W 18:30:20 45° N 18:31:32 34° NE
Cosmos 489 Rocket 4.4 18:25:34 10° S 18:31:50 67° ESE 18:38:07 10° NNE
STARLINK-63 4.3 18:27:59 10° W 18:31:53 45° N 18:33:01 35° NE
Cosmos 1346 Rocket 3.8 18:28:32 10° SSW 18:32:23 47° WNW 18:36:14 10° N
BREEZE-M DEB (TANK) 4.3 18:30:24 10° W 18:33:22 44° SSW 18:37:09 22° SE
STARLINK-35 4.3 18:29:32 10° W 18:33:26 45° N 18:34:31 36° NE
STARLINK-1064 4.3 18:30:06 10° SSW 18:33:36 37° SSE 18:33:36 37° SSE
STARLINK-51 4.3 18:31:13 10° W 18:35:06 45° N 18:36:06 37° NNE
USA 186 3.9 18:38:08 14° NNW 18:38:08 14° NNW 18:38:38 10° NNW
STARLINK-43 3.1 18:32:41 10° WNW 18:36:24 79° NNE 18:36:38 74° ENE
STARLINK-1023 3.9 18:33:29 10° W 18:36:30 38° N 18:36:38 38° N
STARLINK-30 4.3 18:32:53 10° W 18:36:46 45° N 18:37:42 37° NNE
STARLINK-1033 3.6 18:33:01 10° WSW 18:37:10 75° NNW 18:38:08 50° NE
Nadezhda 4 Rocket 3.9 18:31:59 10° N 18:38:18 71° ENE 18:44:37 10° SSE
STARLINK-72 4.3 18:34:32 10° W 18:38:26 44° N 18:39:17 38° NNE
STARLINK-1041 4.3 18:35:02 10° SSW 18:38:25 39° SSE 18:38:25 39° SSE
STARLINK-50 4.3 18:36:12 10° W 18:40:04 44° N 18:40:51 39° NNE
Cosmos 1464 Rocket 4.0 18:34:00 10° S 18:40:23 89° ESE 18:46:49 10° N
USA 238 DEB 4.2 18:33:53 10° NW 18:40:43 47° NE 18:43:16 35° E
USA 238 4.2 18:34:00 10° NW 18:40:48 46° NE 18:43:20 35° E
Cosmos 44 Rocket 3.1 18:36:52 10° NW 18:41:39 84° NE 18:42:58 48° SE
STARLINK-59 4.3 18:38:00 10° W 18:41:52 44° N 18:42:34 39° NNE
STARLINK-56 4.2 18:39:30 10° W 18:43:23 44° N 18:44:02 40° NNE
STARLINK-1038 4.3 18:39:56 10° SW 18:43:11 40° S 18:43:11 40° S
STARLINK-1035 3.9 18:40:09 10° WSW 18:44:23 67° NNW 18:45:13 52° NE
Cosmos 2026 Rocket 4.4 18:38:58 10° N 18:44:44 39° ENE 18:44:59 39° ENE
STARLINK-73 4.2 18:41:13 10° W 18:45:05 44° N 18:45:39 41° NNE
STARLINK-38 4.2 18:42:54 10° WNW 18:46:46 44° N 18:47:15 41° NNE
STARLINK-1024 3.7 18:43:02 10° WSW 18:47:10 68° NNW 18:47:44 59° NNE
Cosmos 2297 Rocket 2.9 18:42:32 10° NNW 18:47:43 34° NE 18:47:51 34° NE
STARLINK-65 4.2 18:44:31 10° WNW 18:48:25 43° N 18:48:49 42° NNE
STARLINK-1046 4.3 18:44:49 10° SW 18:47:57 41° S 18:47:57 41° S
STARLINK-53 4.3 18:46:17 10° WNW 18:50:09 43° N 18:50:28 42° N
STARLINK-1039 4.4 18:49:45 10° SW 18:52:44 40° SSW 18:52:44 40° SSW
STARLINK-1027 4.0 18:50:52 10° W 18:55:05 60° NNW 18:55:28 56° N
Cosmos 405 4.5 18:53:03 10° NNW 18:56:21 37° W 18:58:22 19° SSW
ADEOS Rocket 4.3 18:48:56 10° N 18:56:28 55° WNW 19:03:53 10° SW
STARLINK-1032 3.8 18:53:01 10° W 18:57:08 62° NNW 18:57:17 62° N
Cosmos 2221 Rocket 3.6 18:52:48 10° N 18:56:58 67° NE 18:56:58 67° NE
STARLINK-80 3.9 18:53:57 10° WNW 18:57:10 54° NNW 18:57:10 54° NNW
STARLINK-58 4.5 18:55:22 10° WNW 18:58:11 35° NNW 18:58:11 35° NNW
STARLINK-1045 4.5 18:54:41 10° SW 18:57:32 39° SSW 18:57:32 39° SSW
Cosmos 1943 Rocket 4.2 18:54:23 10° WSW 18:59:01 26° NW 19:03:38 10° N
CZ-2C R/B 3.4 18:53:45 10° S 18:59:34 75° WSW 19:05:17 10° NNW
Cosmos 372 Rocket 4.3 18:54:51 10° NNW 18:59:33 48° NE 18:59:33 48° NE
Cosmos 2034 Rocket 3.9 18:54:45 10° S 19:00:55 89° W 19:07:07 10° N
STARLINK-1011 4.0 18:58:01 10° W 19:02:03 60° NNW 19:02:03 60° NNW
Okean 1 4.4 18:58:19 10° NNW 19:02:09 43° W 19:04:38 19° SSW
Cosmos 468 Rocket 4.0 18:57:29 10° SSW 19:02:46 80° WNW 19:08:08 10° NNE
Timation 2 Rocket 4.3 18:56:09 10° NNW 19:03:00 72° WSW 19:07:09 26° SSE
Lacrosse 5 rocket 2.5 18:59:56 10° NW 19:04:00 37° NNE 19:04:00 37° NNE
Cosmos 2227 Rocket 2.8 19:01:03 10° NNW 19:05:52 40° NE 19:05:52 40° NE
Genesis I 4.5 19:03:03 10° NNW 19:05:28 34° NNW 19:05:28 34° NNW
SPOT 3 Rocket 3.5 19:05:25 46° S 19:07:02 83° WSW 19:12:18 10° NNW
STARLINK-1036 4.1 19:03:02 10° W 19:06:51 56° NW 19:06:51 56° NW
Okean 3 4.3 19:04:31 10° N 19:07:24 42° N 19:07:24 42° N
Cosmos 2298 Rocket 4.3 19:03:36 10° NNW 19:08:19 54° NE 19:08:19 54° NE
STARLINK-1044 4.3 19:08:02 10° W 19:11:38 52° NW 19:11:38 52° NW
STARLINK-1031 4.4 19:09:23 10° W 19:12:46 47° NW 19:12:46 47° NW
Cosmos 1898 Rocket 4.5 19:09:06 10° NW 19:14:00 44° WSW 19:17:01 21° SSW
Gbstr 26 Del rocket 3.6 19:11:11 10° WSW 19:14:28 54° SW 19:14:28 54° SW
Resurs 1-3 4.3 19:19:42 48° NNW 19:19:42 48° NNW 19:22:56 10° NNW
Cosmos 1428 Rocket 4.5 19:16:27 10° N 19:21:52 60° NE 19:21:52 60° NE
Cosmos 1092 Rocket 3.9 19:16:33 10° N 19:22:56 87° W 19:24:43 51° S
USA 234 3.5 19:21:54 49° NE 19:23:00 55° NNE 19:29:21 10° NW
Cosmos 2150 Rocket 4.4 19:21:33 10° NNW 19:25:58 57° N 19:25:58 57° N
Cosmos 1634 Rocket 4.4 19:29:13 49° NNE 19:29:13 49° NNE 19:33:52 10° NNE
Cosmos 1763 Rocket 3.9 19:23:07 10° SW 19:28:18 61° WNW 19:33:34 10° NNE
Meteor 2-4 Rocket 4.1 19:24:23 10° NNW 19:30:14 64° W 19:32:13 41° SSW
Cosmos 2219 3.2 19:24:41 10° NNW 19:29:58 74° N 19:29:58 74° N
NOSS 3-2 (A) 3.9 19:25:40 10° NW 19:33:02 73° NE 19:34:01 66° E
NOSS 3-2 (C) 4.1 19:27:34 10° NW 19:34:46 58° NE 19:35:19 57° ENE
Resurs 01 Rocket 3.2 19:38:52 30° NNW 19:38:52 30° NNW 19:41:11 10° NNW
Cosmos 2195 Rocket 4.4 19:31:55 10° N 19:38:03 79° W 19:38:27 76° SW
Cosmos 2263 Rocket 4.3 19:46:27 10° N 19:48:31 16° NNE 19:48:31 16° NNE
Lacrosse 5 3.7 19:45:44 10° SW 19:47:37 23° SW 19:47:37 23° SW
CENTAUR R/B 3.2 19:46:57 10° NW 19:54:42 62° NE 19:54:46 62° NE
SJ 16-02 4.0 19:57:13 10° WNW 19:59:46 15° W 20:00:56 14° WSW
ATLAS 3B R/B 3.4 20:00:00 10° NW 20:05:09 42° N 20:05:09 42° N
Cosmos 2297 Rocket 3.8 20:26:30 10° NW 20:29:41 31° WNW 20:29:41 31° WNW
USA 238 DEB 4.4 20:24:56 10° NW 20:30:43 52° W 20:30:43 52° W
USA 238 4.4 20:25:02 10° NW 20:30:47 52° W 20:30:47 52° W
Cosmos 2227 Rocket 4.2 20:45:14 10° NW 20:47:42 24° WNW 20:47:42 24° WNW
CENTAUR R/B 4.5 21:37:51 10° NW 21:41:57 31° WNW 21:41:57 31° WNW
